Time,TemperatureF,DewpointF,PressureIn,WindDirection,WindDirectionDegrees,WindSpeedMPH,WindSpeedGustMPH,Humidity,HourlyPrecipIn,Conditions,Clouds,dailyrainin,SoftwareType,DateUTC
2013-05-19 00:00:00,57.6,55.0,29.96,South,180,0.0,0.0,91,0.00,,---,0.00,VWS V14.01,2013-05-19 07:00:00,
2013-05-19 00:04:00,57.4,55.0,29.96,South,190,0.0,0.0,91,0.00,,,0.00,weatherlink.com 1.10,2013-05-19 07:04:00,
2013-05-19 00:15:00,57.2,54.9,29.96,South,180,0.0,0.0,92,0.00,,---,0.00,VWS V14.01,2013-05-19 07:15:00,
2013-05-19 00:19:00,57.1,55.0,29.96,South,190,0.0,0.0,92,0.00,,,0.00,weatherlink.com 1.10,2013-05-19 07:19:00,
2013-05-19 00:30:00,57.1,55.1,29.96,South,180,0.0,1.0,93,0.00,,---,0.00,VWS V14.01,2013-05-19 07:30:00,
2013-05-19 00:34:00,57.1,55.0,29.96,South,190,0.0,0.0,93,0.00,,,0.00,weatherlink.com 1.10,2013-05-19 07:34:00,
2013-05-19 00:45:00,57.4,55.7,29.96,South,180,0.0,0.0,94,0.00,,---,0.00,VWS V14.01,2013-05-19 07:45:00,
2013-05-19 00:49:00,57.4,55.0,29.96,South,190,0.0,0.0,93,0.00,,,0.00,weatherlink.com 1.10,2013-05-19 07:49:00,
2013-05-19 01:00:00,57.3,55.3,29.96,South,180,0.0,0.0,93,0.00,,---,0.00,VWS V14.01,2013-05-19 08:00:00,
2013-05-19 01:04:00,57.2,55.0,29.96,South,190,0.0,0.0,93,0.00,,,0.00,weatherlink.com 1.10,2013-05-19 08:04:00,
2013-05-19 01:15:00,56.8,54.5,29.96,South,180,0.0,0.0,92,0.00,,---,0.00,VWS V14.01,2013-05-19 08:15:00,
2013-05-19 01:19:00,56.6,55.0,29.96,South,190,0.0,0.0,93,0.00,,,0.00,weatherlink.com 1.10,2013-05-19 08:19:00,
2013-05-19 01:30:00,56.4,54.4,29.96,South,180,0.0,0.0,93,0.00,,---,0.00,VWS V14.01,2013-05-19 08:30:00,
2013-05-19 01:34:00,56.4,55.0,29.96,South,190,0.0,0.0,93,0.00,,,0.00,weatherlink.com 1.10,2013-05-19 08:34:00,
2013-05-19 01:45:00,56.1,54.1,29.96,South,180,0.0,0.0,93,0.00,,---,0.00,VWS V14.01,2013-05-19 08:45:00,
2013-05-19 01:49:00,56.0,54.0,29.95,South,190,0.0,0.0,94,0.00,,,0.00,weatherlink.com 1.10,2013-05-19 08:49:00,
2013-05-19 02:00:00,56.0,54.3,29.96,South,180,0.0,0.0,94,0.00,,---,0.00,VWS V14.01,2013-05-19 09:00:00,
2013-05-19 02:04:00,56.0,54.0,29.96,South,190,0.0,0.0,94,0.00,,,0.00,weatherlink.com 1.10,2013-05-19 09:04:00,
2013-05-19 02:15:00,56.0,54.3,29.96,South,180,0.0,1.0,94,0.00,,---,0.00,VWS V14.01,2013-05-19 09:15:00,
2013-05-19 02:19:00,56.0,55.0,29.96,South,190,0.0,0.0,95,0.00,,,0.00,weatherlink.com 1.10,2013-05-19 09:19:00,
2013-05-19 02:30:00,56.0,54.6,29.96,South,180,0.0,0.0,95,0.00,,---,0.00,VWS V14.01,2013-05-19 09:30:00,
2013-05-19 02:34:00,55.9,55.0,29.96,South,190,0.0,0.0,95,0.00,,,0.00,weatherlink.com 1.10,2013-05-19 09:34:00,
2013-05-19 02:45:00,55.9,54.5,29.95,South,180,0.0,0.0,95,0.00,,---,0.00,VWS V14.01,2013-05-19 09:45:00,
2013-05-19 02:49:00,56.1,55.0,29.95,South,190,0.0,0.0,96,0.00,,,0.00,weatherlink.com 1.10,2013-05-19 09:49:00,
2013-05-19 03:00:00,56.6,55.8,29.95,South,180,0.0,0.0,97,0.00,,---,0.00,VWS V14.01,2013-05-19 10:00:00,
2013-05-19 03:04:00,57.1,56.0,29.95,South,190,0.0,0.0,97,0.00,,,0.00,weatherlink.com 1.10,2013-05-19 10:04:00,
2013-05-19 03:15:00,58.0,57.2,29.96,South,180,0.0,1.0,97,0.00,,---,0.00,VWS V14.01,2013-05-19 10:15:00,
2013-05-19 03:19:00,58.4,58.0,29.95,South,190,0.0,1.0,97,0.00,,,0.00,weatherlink.com 1.10,2013-05-19 10:19:00,
2013-05-19 03:30:00,58.8,58.0,29.96,South,180,0.0,1.0,97,0.00,,---,0.00,VWS V14.01,2013-05-19 10:30:00,
2013-05-19 03:34:00,58.9,58.0,29.95,South,190,0.0,1.0,96,0.00,,,0.00,weatherlink.com 1.10,2013-05-19 10:34:00,
2013-05-19 03:45:00,59.1,57.7,29.95,South,180,0.0,2.0,95,0.00,,---,0.00,VWS V14.01,2013-05-19 10:45:00,
2013-05-19 03:49:00,59.1,58.0,29.95,South,190,0.0,1.0,95,0.00,,,0.00,weatherlink.com 1.10,2013-05-19 10:49:00,
2013-05-19 04:00:00,59.2,57.8,29.96,ESE,112,0.0,3.0,95,0.00,,---,0.00,VWS V14.01,2013-05-19 11:00:00,
2013-05-19 04:04:00,59.2,58.0,29.96,ESE,107,1.0,3.0,94,0.00,,,0.00,weatherlink.com 1.10,2013-05-19 11:04:00,
2013-05-19 04:15:00,59.3,57.6,29.96,ESE,112,0.0,3.0,94,0.00,,---,0.00,VWS V14.01,2013-05-19 11:15:00,
2013-05-19 04:19:00,59.4,58.0,29.95,ESE,107,0.0,2.0,94,0.00,,,0.00,weatherlink.com 1.10,2013-05-19 11:19:00,
2013-05-19 04:30:00,59.7,58.0,29.95,ESE,112,0.0,2.0,94,0.00,,---,0.00,VWS V14.01,2013-05-19 11:30:00,
2013-05-19 04:34:00,59.9,58.0,29.95,ESE,107,0.0,2.0,93,0.00,,,0.00,weatherlink.com 1.10,2013-05-19 11:34:00,
2013-05-19 04:45:00,60.2,57.9,29.95,ESE,112,0.0,2.0,92,0.00,,---,0.00,VWS V14.01,2013-05-19 11:45:00,
2013-05-19 04:50:00,60.4,58.0,29.95,ESE,106,0.0,2.0,92,0.00,,,0.00,weatherlink.com 1.10,2013-05-19 11:50:00,
2013-05-19 05:00:00,60.6,58.0,29.95,ESE,112,0.0,3.0,91,0.00,,---,0.00,VWS V14.01,2013-05-19 12:00:00,
2013-05-19 05:05:00,60.7,58.0,29.95,ESE,122,0.0,3.0,91,0.00,,,0.00,weatherlink.com 1.10,2013-05-19 12:05:00,
2013-05-19 05:15:00,60.9,58.0,29.95,ESE,112,0.0,4.0,90,0.00,,---,0.00,VWS V14.01,2013-05-19 12:15:00,
2013-05-19 05:20:00,60.9,58.0,29.95,East,100,1.0,5.0,89,0.00,,,0.00,weatherlink.com 1.10,2013-05-19 12:20:00,
2013-05-19 05:30:00,60.9,57.6,29.95,ESE,112,1.0,5.0,89,0.00,,---,0.00,VWS V14.01,2013-05-19 12:30:00,
2013-05-19 05:35:00,60.9,58.0,29.95,ENE,66,1.0,4.0,89,0.00,,,0.00,weatherlink.com 1.10,2013-05-19 12:35:00,
2013-05-19 05:45:00,60.9,57.6,29.95,ENE,68,1.0,4.0,89,0.00,,---,0.00,VWS V14.01,2013-05-19 12:45:00,
2013-05-19 05:50:00,60.9,58.0,29.95,East,83,1.0,3.0,89,0.00,,,0.00,weatherlink.com 1.10,2013-05-19 12:50:00,
2013-05-19 06:00:00,61.0,57.4,29.96,ENE,68,0.0,3.0,88,0.00,,---,0.00,VWS V14.01,2013-05-19 13:00:00,
2013-05-19 06:05:00,61.1,58.0,29.95,ESE,103,1.0,3.0,88,0.00,,,0.00,weatherlink.com 1.10,2013-05-19 13:05:00,
2013-05-19 06:15:00,61.2,57.3,29.96,ENE,68,1.0,3.0,87,0.00,,---,0.00,VWS V14.01,2013-05-19 13:15:00,
2013-05-19 06:20:00,61.3,57.0,29.95,ENE,69,1.0,3.0,87,0.00,,,0.00,weatherlink.com 1.10,2013-05-19 13:20:00,
2013-05-19 06:30:00,61.3,57.4,29.95,ENE,68,0.0,2.0,87,0.00,,---,0.00,VWS V14.01,2013-05-19 13:30:00,
2013-05-19 06:35:00,61.4,58.0,29.96,East,95,0.0,2.0,87,0.00,,,0.00,weatherlink.com 1.10,2013-05-19 13:35:00,
2013-05-19 06:45:00,61.6,57.7,29.96,ESE,112,0.0,3.0,87,0.00,,---,0.00,VWS V14.01,2013-05-19 13:45:00,
2013-05-19 06:50:00,61.7,58.0,29.96,ESE,106,0.0,3.0,86,0.00,,,0.00,weatherlink.com 1.10,2013-05-19 13:50:00,
2013-05-19 07:00:00,61.9,57.3,29.96,South,180,0.0,3.0,85,0.00,,---,0.00,VWS V14.01,2013-05-19 14:00:00,
2013-05-19 07:05:00,62.0,58.0,29.96,South,180,1.0,1.0,85,0.00,,,0.00,weatherlink.com 1.10,2013-05-19 14:05:00,
2013-05-19 07:15:00,62.3,57.7,29.96,South,180,0.0,4.0,85,0.00,,---,0.00,VWS V14.01,2013-05-19 14:15:00,
2013-05-19 07:20:00,62.4,57.0,29.96,ESE,115,0.0,4.0,83,0.00,,,0.00,weatherlink.com 1.10,2013-05-19 14:20:00,
2013-05-19 07:30:00,62.7,57.1,29.96,ESE,112,0.0,2.0,82,0.00,,---,0.00,VWS V14.01,2013-05-19 14:30:00,
2013-05-19 07:35:00,62.9,57.0,29.96,ESE,111,0.0,1.0,82,0.00,,,0.00,weatherlink.com 1.10,2013-05-19 14:35:00,
2013-05-19 07:45:00,63.1,57.5,29.97,ESE,112,0.0,3.0,82,0.00,,---,0.00,VWS V14.01,2013-05-19 14:45:00,
2013-05-19 07:50:00,63.3,58.0,29.96,ESE,111,0.0,1.0,82,0.00,,,0.00,weatherlink.com 1.10,2013-05-19 14:50:00,
2013-05-19 08:00:00,63.6,58.0,29.96,ESE,112,0.0,4.0,82,0.00,,---,0.00,VWS V14.01,2013-05-19 15:00:00,
2013-05-19 08:05:00,63.9,58.0,29.97,SSW,194,1.0,4.0,82,0.00,,,0.00,weatherlink.com 1.10,2013-05-19 15:05:00,
2013-05-19 08:15:00,64.3,58.0,29.97,SSW,202,0.0,3.0,80,0.00,,---,0.00,VWS V14.01,2013-05-19 15:15:00,
2013-05-19 08:20:00,64.7,58.0,29.97,ESE,118,0.0,3.0,80,0.00,,,0.00,weatherlink.com 1.10,2013-05-19 15:20:00,
2013-05-19 08:30:00,65.0,58.3,29.97,ESE,112,1.0,4.0,79,0.00,,---,0.00,VWS V14.01,2013-05-19 15:30:00,
2013-05-19 08:35:00,65.1,58.0,29.96,SSE,167,0.0,3.0,78,0.00,,,0.00,weatherlink.com 1.10,2013-05-19 15:35:00,
2013-05-19 08:45:00,65.4,58.4,29.97,ESE,112,1.0,4.0,78,0.00,,---,0.00,VWS V14.01,2013-05-19 15:45:00,
2013-05-19 08:50:00,65.9,59.0,29.97,ESE,117,2.0,3.0,77,0.00,,,0.00,weatherlink.com 1.10,2013-05-19 15:50:00,
2013-05-19 09:00:00,67.0,58.5,29.97,ESE,112,1.0,4.0,74,0.00,,---,0.00,VWS V14.01,2013-05-19 16:00:00,
2013-05-19 09:05:00,67.6,59.0,29.97,ESE,107,0.0,4.0,74,0.00,,,0.00,weatherlink.com 1.10,2013-05-19 16:05:00,
2013-05-19 09:15:00,67.9,58.5,29.96,East,90,1.0,4.0,72,0.00,,---,0.00,VWS V14.01,2013-05-19 16:15:00,
2013-05-19 09:20:00,67.7,59.0,29.96,WSW,246,1.0,4.0,73,0.00,,,0.00,weatherlink.com 1.10,2013-05-19 16:20:00,
2013-05-19 09:30:00,67.6,59.0,29.96,WSW,248,1.0,4.0,74,0.00,,---,0.00,VWS V14.01,2013-05-19 16:30:00,
2013-05-19 09:35:00,67.6,59.0,29.96,SSE,166,2.0,4.0,73,0.00,,,0.00,weatherlink.com 1.10,2013-05-19 16:35:00,
2013-05-19 09:45:00,68.0,59.8,29.95,SE,135,1.0,4.0,75,0.00,,---,0.00,VWS V14.01,2013-05-19 16:45:00,
2013-05-19 09:50:00,69.1,60.0,29.95,SW,222,0.0,6.0,73,0.00,,,0.00,weatherlink.com 1.10,2013-05-19 16:50:00,
2013-05-19 10:00:00,70.5,60.3,29.95,ESE,112,2.0,6.0,70,0.00,,---,0.00,VWS V14.01,2013-05-19 17:00:00,
2013-05-19 10:05:00,70.8,60.0,29.95,ESE,123,1.0,7.0,68,0.00,,,0.00,weatherlink.com 1.10,2013-05-19 17:05:00,
2013-05-19 10:15:00,71.3,60.2,29.95,South,180,2.0,7.0,68,0.00,,---,0.00,VWS V14.01,2013-05-19 17:15:00,
2013-05-19 10:20:00,71.8,61.0,29.95,ESE,123,0.0,7.0,68,0.00,,,0.00,weatherlink.com 1.10,2013-05-19 17:20:00,
2013-05-19 10:30:00,72.2,60.2,29.94,SSW,202,2.0,7.0,66,0.00,,---,0.00,VWS V14.01,2013-05-19 17:30:00,
2013-05-19 10:35:00,71.8,60.0,29.94,SSE,163,3.0,9.0,66,0.00,,,0.00,weatherlink.com 1.10,2013-05-19 17:35:00,
2013-05-19 10:45:00,71.7,60.6,29.94,South,180,3.0,9.0,68,0.00,,---,0.00,VWS V14.01,2013-05-19 17:45:00,
2013-05-19 10:50:00,71.7,60.0,29.94,SW,227,0.0,7.0,67,0.00,,,0.00,weatherlink.com 1.10,2013-05-19 17:50:00,
2013-05-19 11:00:00,71.7,60.6,29.94,SSW,202,3.0,9.0,68,0.00,,---,0.00,VWS V14.01,2013-05-19 18:00:00,
2013-05-19 11:05:00,72.1,61.0,29.93,ESE,120,1.0,9.0,67,0.00,,,0.00,weatherlink.com 1.10,2013-05-19 18:05:00,
2013-05-19 11:15:00,71.9,59.9,29.93,South,180,3.0,10.0,66,0.00,,---,0.00,VWS V14.01,2013-05-19 18:15:00,
2013-05-19 11:20:00,71.7,60.0,29.93,South,187,4.0,10.0,66,0.00,,,0.00,weatherlink.com 1.10,2013-05-19 18:20:00,
2013-05-19 11:30:00,71.5,60.0,29.93,SSW,202,4.0,10.0,67,0.00,,---,0.00,VWS V14.01,2013-05-19 18:30:00,
2013-05-19 11:35:00,71.5,59.0,29.93,SSW,195,5.0,9.0,66,0.00,,,0.00,weatherlink.com 1.10,2013-05-19 18:35:00,
2013-05-19 11:50:00,71.5,60.0,29.93,SW,229,3.0,9.0,67,0.00,,,0.00,weatherlink.com 1.10,2013-05-19 18:50:00,
2013-05-19 11:56:00,71.5,60.0,29.93,SSW,202,4.0,10.0,67,0.00,,---,0.00,VWS V14.01,2013-05-19 18:56:00,
2013-05-19 12:01:00,71.6,59.2,29.93,South,189,3.0,8.0,65,0.00,,---,0.00,VWS V14.01,2013-05-19 19:01:00,
2013-05-19 12:06:00,71.7,60.2,29.93,South,191,5.0,8.0,67,0.00,,---,0.00,VWS V14.01,2013-05-19 19:06:00,
2013-05-19 12:11:00,71.9,59.9,29.93,SW,220,2.0,8.0,66,0.00,,---,0.00,VWS V14.01,2013-05-19 19:11:00,
2013-05-19 12:16:00,72.1,59.7,29.93,ESE,117,4.0,9.0,65,0.00,,---,0.00,VWS V14.01,2013-05-19 19:16:00,
2013-05-19 12:21:00,72.3,59.9,29.93,WSW,239,6.0,9.0,65,0.00,,---,0.00,VWS V14.01,2013-05-19 19:21:00,
2013-05-19 12:26:00,72.4,60.4,29.93,South,171,6.0,9.0,66,0.00,,---,0.00,VWS V14.01,2013-05-19 19:26:00,
2013-05-19 12:30:00,72.4,60.0,29.93,South,180,4.0,11.0,65,0.00,,---,0.00,VWS V14.01,2013-05-19 19:30:00,
2013-05-19 12:39:00,72.0,60.0,29.92,WSW,257,6.0,11.0,66,0.00,,,0.00,weatherlink.com 1.10,2013-05-19 19:39:00,
2013-05-19 12:45:00,71.6,60.1,29.92,SSW,202,4.0,11.0,67,0.00,,---,0.00,VWS V14.01,2013-05-19 19:45:00,
2013-05-19 12:54:00,72.2,61.0,29.92,SSW,203,2.0,10.0,67,0.00,,,0.00,weatherlink.com 1.10,2013-05-19 19:54:00,
2013-05-19 13:00:00,72.3,60.3,29.92,South,180,5.0,12.0,66,0.00,,---,0.00,VWS V14.01,2013-05-19 20:00:00,
2013-05-19 13:09:00,71.9,60.0,29.92,SSW,196,7.0,14.0,67,0.00,,,0.00,weatherlink.com 1.10,2013-05-19 20:09:00,
2013-05-19 13:15:00,72.3,61.2,29.91,SSW,202,5.0,14.0,68,0.00,,---,0.00,VWS V14.01,2013-05-19 20:15:00,
2013-05-19 13:24:00,72.7,61.0,29.91,South,169,4.0,10.0,66,0.00,,,0.00,weatherlink.com 1.10,2013-05-19 20:24:00,
2013-05-19 13:30:00,72.8,61.2,29.91,SSW,202,4.0,10.0,67,0.00,,---,0.00,VWS V14.01,2013-05-19 20:30:00,
2013-05-19 13:39:00,72.8,61.0,29.91,SSW,197,4.0,9.0,66,0.00,,,0.00,weatherlink.com 1.10,2013-05-19 20:39:00,
2013-05-19 13:45:00,72.8,61.2,29.91,SSW,202,5.0,10.0,67,0.00,,---,0.00,VWS V14.01,2013-05-19 20:45:00,
2013-05-19 13:54:00,72.5,61.0,29.91,WSW,248,1.0,14.0,67,0.00,,,0.00,weatherlink.com 1.10,2013-05-19 20:54:00,
2013-05-19 14:00:00,72.4,60.8,29.91,SSW,202,5.0,14.0,67,0.00,,---,0.00,VWS V14.01,2013-05-19 21:00:00,
2013-05-19 14:09:00,72.2,61.0,29.91,SW,224,7.0,10.0,67,0.00,,,0.00,weatherlink.com 1.10,2013-05-19 21:09:00,
2013-05-19 14:15:00,72.2,60.7,29.91,SW,225,5.0,11.0,67,0.00,,---,0.00,VWS V14.01,2013-05-19 21:15:00,
2013-05-19 14:24:00,72.6,61.0,29.91,SSW,202,3.0,9.0,67,0.00,,,0.00,weatherlink.com 1.10,2013-05-19 21:24:00,
2013-05-19 14:30:00,72.5,60.9,29.91,SSW,202,5.0,11.0,67,0.00,,---,0.00,VWS V14.01,2013-05-19 21:30:00,
2013-05-19 14:39:00,72.6,61.0,29.90,SW,216,6.0,9.0,67,0.00,,,0.00,weatherlink.com 1.10,2013-05-19 21:39:00,
2013-05-19 14:45:00,72.8,61.2,29.90,SSW,202,5.0,10.0,67,0.00,,---,0.00,VWS V14.01,2013-05-19 21:45:00,
2013-05-19 14:54:00,72.6,61.0,29.90,WSW,240,5.0,13.0,67,0.00,,,0.00,weatherlink.com 1.10,2013-05-19 21:54:00,
2013-05-19 15:00:00,72.8,61.2,29.90,SSW,202,5.0,13.0,67,0.00,,---,0.00,VWS V14.01,2013-05-19 22:00:00,
2013-05-19 15:09:00,73.0,62.0,29.89,SW,218,3.0,13.0,68,0.00,,,0.00,weatherlink.com 1.10,2013-05-19 22:09:00,
2013-05-19 15:15:00,73.1,61.5,29.90,SSW,202,5.0,13.0,67,0.00,,---,0.00,VWS V14.01,2013-05-19 22:15:00,
2013-05-19 15:24:00,73.0,62.0,29.89,South,190,7.0,13.0,69,0.00,,,0.00,weatherlink.com 1.10,2013-05-19 22:24:00,
2013-05-19 15:30:00,73.0,61.8,29.89,SSW,202,5.0,13.0,68,0.00,,---,0.00,VWS V14.01,2013-05-19 22:30:00,
2013-05-19 15:39:00,73.3,62.0,29.89,SW,229,4.0,10.0,68,0.00,,,0.00,weatherlink.com 1.10,2013-05-19 22:39:00,
2013-05-19 15:45:00,73.1,62.3,29.89,SSW,202,5.0,11.0,69,0.00,,---,0.00,VWS V14.01,2013-05-19 22:45:00,
2013-05-19 15:54:00,73.3,62.0,29.89,WSW,257,5.0,9.0,67,0.00,,,0.00,weatherlink.com 1.10,2013-05-19 22:54:00,
2013-05-19 16:00:00,73.2,62.0,29.88,SSW,202,4.0,10.0,68,0.00,,---,0.00,VWS V14.01,2013-05-19 23:00:00,
2013-05-19 16:09:00,73.3,62.0,29.88,South,183,4.0,10.0,67,0.00,,,0.00,weatherlink.com 1.10,2013-05-19 23:09:00,
2013-05-19 16:15:00,73.1,61.9,29.88,SSW,202,5.0,11.0,68,0.00,,---,0.00,VWS V14.01,2013-05-19 23:15:00,
2013-05-19 16:24:00,73.0,62.0,29.88,SSW,192,2.0,10.0,69,0.00,,,0.00,weatherlink.com 1.10,2013-05-19 23:24:00,
2013-05-19 16:30:00,73.2,62.4,29.88,SSW,202,4.0,10.0,69,0.00,,---,0.00,VWS V14.01,2013-05-19 23:30:00,
2013-05-19 16:39:00,73.2,62.0,29.88,SSW,202,4.0,12.0,67,0.00,,,0.00,weatherlink.com 1.10,2013-05-19 23:39:00,
2013-05-19 16:45:00,72.9,61.7,29.87,SSW,202,5.0,12.0,68,0.00,,---,0.00,VWS V14.01,2013-05-19 23:45:00,
2013-05-19 16:54:00,72.9,62.0,29.87,South,188,7.0,11.0,68,0.00,,,0.00,weatherlink.com 1.10,2013-05-19 23:54:00,
2013-05-19 17:00:00,72.7,60.7,29.87,SSW,202,5.0,12.0,66,0.00,,---,0.00,VWS V14.01,2013-05-20 00:00:00,
2013-05-19 17:09:00,72.6,62.0,29.87,South,190,8.0,10.0,69,0.00,,,0.00,weatherlink.com 1.10,2013-05-20 00:09:00,
2013-05-19 17:15:00,72.5,61.3,29.87,SSW,202,5.0,10.0,68,0.00,,---,0.00,VWS V14.01,2013-05-20 00:15:00,
2013-05-19 17:24:00,72.2,61.0,29.87,WSW,238,4.0,11.0,69,0.00,,,0.00,weatherlink.com 1.10,2013-05-20 00:24:00,
2013-05-19 17:30:00,72.0,61.3,29.87,SSW,202,4.0,11.0,69,0.00,,---,0.00,VWS V14.01,2013-05-20 00:30:00,
2013-05-19 17:39:00,71.8,61.0,29.87,SSW,193,5.0,8.0,69,0.00,,,0.00,weatherlink.com 1.10,2013-05-20 00:39:00,
2013-05-19 17:45:00,71.7,61.0,29.87,SSW,202,4.0,10.0,69,0.00,,---,0.00,VWS V14.01,2013-05-20 00:45:00,
2013-05-19 17:54:00,71.5,60.0,29.86,SSW,192,7.0,8.0,68,0.00,,,0.00,weatherlink.com 1.10,2013-05-20 00:54:00,
2013-05-19 18:00:00,71.2,60.5,29.86,SSW,202,4.0,12.0,69,0.00,,---,0.00,VWS V14.01,2013-05-20 01:00:00,
2013-05-19 18:09:00,71.1,60.0,29.86,SSW,213,1.0,10.0,69,0.00,,,0.00,weatherlink.com 1.10,2013-05-20 01:09:00,
2013-05-19 18:15:00,70.9,60.6,29.86,SSW,202,4.0,11.0,70,0.00,,---,0.00,VWS V14.01,2013-05-20 01:15:00,
2013-05-19 18:24:00,70.3,61.0,29.86,South,178,2.0,9.0,72,0.00,,,0.00,weatherlink.com 1.10,2013-05-20 01:24:00,
2013-05-19 18:30:00,70.2,60.8,29.86,SSW,202,4.0,9.0,72,0.00,,---,0.00,VWS V14.01,2013-05-20 01:30:00,
2013-05-19 18:40:00,69.6,61.0,29.86,SW,228,2.0,7.0,74,0.00,,,0.00,weatherlink.com 1.10,2013-05-20 01:40:00,
2013-05-19 18:45:00,69.4,60.8,29.86,SSW,202,3.0,7.0,74,0.00,,---,0.00,VWS V14.01,2013-05-20 01:45:00,
2013-05-19 18:55:00,69.0,60.0,29.86,South,184,3.0,8.0,74,0.00,,,0.00,weatherlink.com 1.10,2013-05-20 01:55:00,
2013-05-19 19:00:00,68.8,60.2,29.86,SSW,202,3.0,8.0,74,0.00,,---,0.00,VWS V14.01,2013-05-20 02:00:00,
2013-05-19 19:10:00,67.7,60.0,29.86,SSW,212,1.0,7.0,76,0.00,,,0.00,weatherlink.com 1.10,2013-05-20 02:10:00,
2013-05-19 19:15:00,67.3,59.5,29.87,SSW,202,3.0,8.0,76,0.00,,---,0.00,VWS V14.01,2013-05-20 02:15:00,
2013-05-19 19:25:00,66.6,60.0,29.87,SSE,156,3.0,6.0,79,0.00,,,0.00,weatherlink.com 1.10,2013-05-20 02:25:00,
2013-05-19 19:30:00,66.4,59.7,29.87,SSW,202,2.0,6.0,79,0.00,,---,0.00,VWS V14.01,2013-05-20 02:30:00,
2013-05-19 19:40:00,65.8,60.0,29.87,South,185,3.0,4.0,80,0.00,,,0.00,weatherlink.com 1.10,2013-05-20 02:40:00,
2013-05-19 19:45:00,65.6,59.6,29.87,SSW,202,1.0,7.0,81,0.00,,---,0.00,VWS V14.01,2013-05-20 02:45:00,
2013-05-19 19:55:00,65.2,59.0,29.87,South,182,1.0,5.0,81,0.00,,,0.00,weatherlink.com 1.10,2013-05-20 02:55:00,
2013-05-19 20:00:00,65.1,59.1,29.87,South,180,1.0,5.0,81,0.00,,---,0.00,VWS V14.01,2013-05-20 03:00:00,
2013-05-19 20:10:00,64.8,60.0,29.87,SSW,198,2.0,5.0,83,0.00,,,0.00,weatherlink.com 1.10,2013-05-20 03:10:00,
2013-05-19 20:15:00,64.7,59.4,29.87,South,180,2.0,5.0,83,0.00,,---,0.00,VWS V14.01,2013-05-20 03:15:00,
2013-05-19 20:25:00,64.5,60.0,29.88,SSW,194,0.0,5.0,84,0.00,,,0.00,weatherlink.com 1.10,2013-05-20 03:25:00,
2013-05-19 20:30:00,64.4,59.8,29.88,SSW,202,1.0,5.0,85,0.00,,---,0.00,VWS V14.01,2013-05-20 03:30:00,
2013-05-19 20:40:00,64.2,60.0,29.88,South,191,0.0,4.0,85,0.00,,,0.00,weatherlink.com 1.10,2013-05-20 03:40:00,
2013-05-19 20:45:00,64.1,59.8,29.88,South,180,1.0,4.0,86,0.00,,---,0.00,VWS V14.01,2013-05-20 03:45:00,
2013-05-19 20:55:00,64.0,60.0,29.88,South,191,1.0,2.0,86,0.00,,,0.00,weatherlink.com 1.10,2013-05-20 03:55:00,
2013-05-19 21:00:00,63.9,59.6,29.88,South,180,0.0,3.0,86,0.00,,---,0.00,VWS V14.01,2013-05-20 04:00:00,
2013-05-19 21:10:00,63.7,60.0,29.89,South,191,0.0,2.0,87,0.00,,,0.00,weatherlink.com 1.10,2013-05-20 04:10:00,
2013-05-19 21:15:00,63.6,59.3,29.89,South,180,0.0,2.0,86,0.00,,---,0.00,VWS V14.01,2013-05-20 04:15:00,
2013-05-19 21:25:00,63.4,59.0,29.89,South,173,0.0,4.0,86,0.00,,,0.00,weatherlink.com 1.10,2013-05-20 04:25:00,
2013-05-19 21:30:00,63.3,58.7,29.89,South,180,1.0,4.0,85,0.00,,---,0.00,VWS V14.01,2013-05-20 04:30:00,
2013-05-19 21:40:00,63.2,59.0,29.89,South,171,1.0,2.0,85,0.00,,,0.00,weatherlink.com 1.10,2013-05-20 04:40:00,
2013-05-19 21:45:00,63.1,58.5,29.89,South,180,0.0,3.0,85,0.00,,---,0.00,VWS V14.01,2013-05-20 04:45:00,
2013-05-19 21:55:00,63.0,59.0,29.89,ESE,107,0.0,2.0,85,0.00,,,0.00,weatherlink.com 1.10,2013-05-20 04:55:00,
2013-05-19 22:00:00,62.9,58.3,29.90,SE,135,0.0,2.0,85,0.00,,---,0.00,VWS V14.01,2013-05-20 05:00:00,
2013-05-19 22:10:00,62.8,59.0,29.90,SE,128,0.0,2.0,86,0.00,,,0.00,weatherlink.com 1.10,2013-05-20 05:10:00,
2013-05-19 22:15:00,62.7,58.5,29.90,SE,135,0.0,2.0,86,0.00,,---,0.00,VWS V14.01,2013-05-20 05:15:00,
2013-05-19 22:25:00,62.6,59.0,29.90,ESE,119,0.0,3.0,87,0.00,,,0.00,weatherlink.com 1.10,2013-05-20 05:25:00,
2013-05-19 22:30:00,62.6,58.7,29.90,ESE,112,0.0,3.0,87,0.00,,---,0.00,VWS V14.01,2013-05-20 05:30:00,
2013-05-19 22:40:00,62.5,59.0,29.90,SE,128,0.0,2.0,87,0.00,,,0.00,weatherlink.com 1.10,2013-05-20 05:40:00,
2013-05-19 22:45:00,62.5,58.6,29.90,SE,135,0.0,2.0,87,0.00,,---,0.00,VWS V14.01,2013-05-20 05:45:00,
2013-05-19 22:55:00,62.3,59.0,29.90,SE,128,0.0,1.0,88,0.00,,,0.00,weatherlink.com 1.10,2013-05-20 05:55:00,
2013-05-19 23:00:00,62.2,58.6,29.90,SE,135,0.0,1.0,88,0.00,,---,0.00,VWS V14.01,2013-05-20 06:00:00,
2013-05-19 23:10:00,61.8,58.0,29.90,SE,128,0.0,1.0,88,0.00,,,0.00,weatherlink.com 1.10,2013-05-20 06:10:00,
2013-05-19 23:15:00,61.6,58.0,29.90,SE,135,0.0,1.0,88,0.00,,---,0.00,VWS V14.01,2013-05-20 06:15:00,
2013-05-19 23:25:00,61.4,59.0,29.90,SE,133,0.0,2.0,90,0.00,,,0.00,weatherlink.com 1.10,2013-05-20 06:25:00,
2013-05-19 23:30:00,61.4,58.5,29.90,SE,135,0.0,2.0,90,0.00,,---,0.00,VWS V14.01,2013-05-20 06:30:00,
2013-05-19 23:40:00,61.4,59.0,29.90,SE,133,0.0,2.0,91,0.00,,,0.00,weatherlink.com 1.10,2013-05-20 06:40:00,
2013-05-19 23:45:00,61.4,58.8,29.90,SE,135,0.0,2.0,91,0.00,,---,0.00,VWS V14.01,2013-05-20 06:45:00,
2013-05-19 23:55:00,61.2,59.0,29.90,SE,133,0.0,1.0,91,0.00,,,0.00,weatherlink.com 1.10,2013-05-20 06:55:00,